Location: Fort Wayne
(41.1310°N, 85.1290°W)
Time: 07:59:29
(UTC-04:00)

COSMOS 2406 - Visible Passes

Search period start: 29 August 2014 00:00
Search period end: 08 September 2014 00:00
Orbit: 843 x 866 km, 71.0° (Epoch: 25 August)

Date Brightness Start Highest point End Pass type
(mag) Time Alt. Az. Time Alt. Az. Time Alt. Az.
29 Aug 4.5 21:07:19 10° NW 21:12:39 42° WSW 21:17:56 10° S visible
30 Aug 4.6 20:56:12 10° NW 21:01:30 41° WSW 21:06:46 10° S visible
31 Aug 4.7 20:45:04 10° NW 20:50:21 40° WSW 20:55:35 10° S visible
01 Sep 4.7 20:33:57 10° NW 20:39:13 39° WSW 20:44:25 10° S visible
